Location: Newark
(45.6833°N, 12.6333°E)
Time: 02:19:48
(UTC+00:00)

N. Korean satellite - Pass Details

Date: 21 November 2019
Orbit: 456 x 506 km, 97.2° (Epoch: 06 December)

Event Time Altitude Azimuth Distance (km) Brightness Sun altitude
Rises 17:27:56 0° 218° (SW) 2,568 11.0 -19.7°
Reaches altitude 10° 17:31:36 10° 257° (WSW) 1,706 10.5 -20.3°
Maximum altitude 17:32:31 11° 272° (W) 1,665 10.4 -20.5°
Drops below altitude 10° 17:33:25 10° 286° (WNW) 1,715 10.3 -20.7°
Sets 17:37:10 0° 325° (NW) 2,615 10.6 -21.3°
